User: anonymous   Login
Location: Unspecified
(0.0000°N, 0.0000°E)
Time: 11:32:31
(UTC+00:00)
Language:

BEESAT 2 - Orbit

View from above orbital plane
View from above orbital plane
View from above satellite
View from above satellite

Ground track
Ground track

The orbit data is extracted from the following two-line orbital elements,

1 39136U 13015G   17264.47385632  .00001335  00000-0  79870-4 0  9997
2 39136 064.8691 287.6453 0034272 268.5845 091.1354 15.15362372243477
Epoch (UTC): 21 September 2017 11:22:21
Eccentricity: 0.0034272
inclination: 64.8691°
perigee height: 496 km
apogee height: 543 km
right ascension of ascending node: 287.6453°
argument of perigee: 268.5845°
revolutions per day: 15.15362372
mean anomaly at epoch: 91.1354°
orbit number at epoch: 24347

The dashed part of the orbit path shows where the satellite is in the earth's shadow,  

DLR